TimeAKDT,TemperatureF,Dew PointF,Humidity,Sea Level PressureIn,VisibilityMPH,Wind Direction,Wind SpeedMPH,Gust SpeedMPH,PrecipitationIn,Events,Conditions,WindDirDegrees,DateUTC
12:53 AM,50.0,46.9,89,29.97,10.0,SE,31.1,36.8,N/A,,Overcast,140,2012-10-08 08:53:00
1:41 AM,48.2,46.4,93,29.96,10.0,SSE,33.4,41.4,N/A,,Overcast,150,2012-10-08 09:41:00
1:53 AM,48.9,46.9,93,29.96,10.0,SE,32.2,41.4,N/A,,Overcast,140,2012-10-08 09:53:00
2:53 AM,48.9,48.0,97,29.98,10.0,SE,24.2,33.4,N/A,,Overcast,130,2012-10-08 10:53:00
3:53 AM,48.9,48.0,97,29.99,10.0,SE,19.6,29.9,N/A,,Overcast,130,2012-10-08 11:53:00
4:10 AM,48.2,46.4,93,29.98,10.0,ESE,19.6,32.2,N/A,,Overcast,120,2012-10-08 12:10:00
4:53 AM,48.0,46.9,96,29.97,10.0,ESE,29.9,39.1,N/A,,Overcast,120,2012-10-08 12:53:00
5:53 AM,48.0,46.9,96,29.98,10.0,ESE,24.2,33.4,N/A,,Overcast,120,2012-10-08 13:53:00
6:53 AM,48.0,46.9,96,29.98,10.0,SE,26.5,33.4,N/A,,Overcast,130,2012-10-08 14:53:00
7:53 AM,48.9,46.9,93,29.99,10.0,SE,20.7,29.9,N/A,,Overcast,130,2012-10-08 15:53:00
8:53 AM,48.9,46.0,90,29.99,10.0,SE,27.6,34.5,N/A,,Overcast,140,2012-10-08 16:53:00
9:45 AM,48.2,46.4,93,29.99,10.0,SE,19.6,-,N/A,,Mostly Cloudy,130,2012-10-08 17:45:00
9:53 AM,48.9,46.9,93,29.99,10.0,SE,18.4,-,N/A,,Mostly Cloudy,130,2012-10-08 17:53:00
10:53 AM,50.0,46.9,89,30.00,10.0,SE,21.9,29.9,N/A,,Overcast,130,2012-10-08 18:53:00
11:53 AM,51.1,48.0,89,30.00,10.0,SE,21.9,29.9,N/A,,Overcast,130,2012-10-08 19:53:00
12:53 PM,50.0,46.9,89,30.00,10.0,ESE,28.8,35.7,N/A,,Overcast,120,2012-10-08 20:53:00
1:12 PM,50.0,46.4,87,30.00,10.0,SE,28.8,40.3,N/A,,Overcast,130,2012-10-08 21:12:00
1:33 PM,50.0,46.4,87,29.99,10.0,SE,29.9,34.5,N/A,,Overcast,130,2012-10-08 21:33:00
1:53 PM,50.0,48.0,93,30.00,10.0,SE,26.5,34.5,N/A,,Overcast,130,2012-10-08 21:53:00
2:41 PM,50.0,48.2,94,30.00,10.0,SE,26.5,34.5,N/A,,Overcast,130,2012-10-08 22:41:00
2:53 PM,50.0,48.0,93,30.00,10.0,SE,24.2,33.4,N/A,,Overcast,130,2012-10-08 22:53:00
3:50 PM,50.0,46.4,87,30.01,10.0,SE,25.3,32.2,N/A,,Overcast,130,2012-10-08 23:50:00
3:53 PM,50.0,46.9,89,30.01,10.0,ESE,24.2,32.2,N/A,,Overcast,120,2012-10-08 23:53:00
4:28 PM,50.0,48.2,94,30.00,10.0,ESE,23.0,33.4,N/A,,Overcast,120,2012-10-09 00:28:00
4:43 PM,50.0,48.2,94,30.00,10.0,ESE,24.2,32.2,N/A,,Overcast,120,2012-10-09 00:43:00
4:53 PM,50.0,48.0,93,30.01,10.0,ESE,24.2,32.2,N/A,,Overcast,120,2012-10-09 00:53:00
5:53 PM,50.0,46.9,89,30.00,10.0,SE,23.0,32.2,N/A,,Overcast,130,2012-10-09 01:53:00
6:53 PM,50.0,46.9,89,29.98,10.0,SE,23.0,31.1,N/A,,Overcast,130,2012-10-09 02:53:00
7:53 PM,50.0,46.0,86,29.97,10.0,ESE,23.0,29.9,N/A,,Overcast,120,2012-10-09 03:53:00
8:53 PM,50.0,46.9,89,29.98,10.0,SE,24.2,33.4,N/A,,Overcast,130,2012-10-09 04:53:00
9:53 PM,50.0,46.9,89,29.99,10.0,SE,21.9,-,N/A,,Overcast,140,2012-10-09 05:53:00
10:03 PM,50.0,46.4,87,29.98,10.0,SE,23.0,29.9,N/A,,Overcast,140,2012-10-09 06:03:00
10:53 PM,50.0,46.9,89,29.99,10.0,ESE,23.0,33.4,N/A,,Overcast,120,2012-10-09 06:53:00
11:53 PM,48.2,46.4,93,29.98,10.0,SE,25.3,35.7,N/A,,Overcast,130,2012-10-09 07:53:00